TimeCST,TemperatureF,Dew PointF,Humidity,Sea Level PressureIn,VisibilityMPH,Wind Direction,Wind SpeedMPH,Gust SpeedMPH,PrecipitationIn,Events,Conditions,WindDirDegrees,DateUTC
12:53 AM,41.0,36.0,82,30.09,10.0,SE,3.5,-,N/A,,Clear,130,2014-01-31 06:53:00
1:53 AM,41.0,36.0,82,30.09,10.0,SE,3.5,-,N/A,,Clear,130,2014-01-31 07:53:00
2:53 AM,39.9,36.0,86,30.09,10.0,SE,3.5,-,N/A,,Clear,130,2014-01-31 08:53:00
3:53 AM,39.9,37.0,89,30.08,10.0,ESE,3.5,-,N/A,,Clear,120,2014-01-31 09:53:00
4:53 AM,42.1,39.0,89,30.07,10.0,SE,4.6,-,N/A,,Overcast,140,2014-01-31 10:53:00
5:53 AM,44.1,39.9,85,30.08,10.0,ESE,4.6,-,N/A,,Mostly Cloudy,110,2014-01-31 11:53:00
6:53 AM,44.1,41.0,89,30.10,10.0,Calm,Calm,-,N/A,,Clear,0,2014-01-31 12:53:00
7:53 AM,46.0,42.1,86,30.11,10.0,ESE,4.6,-,N/A,,Mostly Cloudy,120,2014-01-31 13:53:00
8:53 AM,51.1,45.0,80,30.12,10.0,SE,4.6,-,N/A,,Overcast,140,2014-01-31 14:53:00
9:53 AM,55.0,46.9,74,30.12,10.0,SSE,6.9,-,N/A,,Overcast,150,2014-01-31 15:53:00
10:53 AM,60.1,48.0,64,30.12,10.0,SSE,5.8,-,N/A,,Overcast,160,2014-01-31 16:53:00
11:53 AM,62.1,48.9,62,30.10,10.0,SSE,8.1,-,N/A,,Overcast,150,2014-01-31 17:53:00
12:53 PM,64.9,48.0,54,30.06,10.0,South,11.5,19.6,N/A,,Mostly Cloudy,180,2014-01-31 18:53:00
1:53 PM,66.0,48.9,54,30.04,10.0,South,12.7,20.7,N/A,,Mostly Cloudy,190,2014-01-31 19:53:00
2:53 PM,64.9,48.9,56,30.04,10.0,South,9.2,-,N/A,,Mostly Cloudy,180,2014-01-31 20:53:00
3:53 PM,64.0,48.0,56,30.02,10.0,South,9.2,-,N/A,,Clear,170,2014-01-31 21:53:00
4:53 PM,64.0,48.0,56,30.02,10.0,SSE,9.2,-,N/A,,Clear,160,2014-01-31 22:53:00
5:53 PM,61.0,48.0,62,30.02,10.0,SSE,5.8,-,N/A,,Clear,160,2014-01-31 23:53:00
6:53 PM,57.9,48.0,70,30.03,10.0,ESE,5.8,-,N/A,,Clear,120,2014-02-01 00:53:00
7:53 PM,57.0,48.0,72,30.04,10.0,Variable,4.6,-,N/A,,Mostly Cloudy,0,2014-02-01 01:53:00
8:53 PM,55.9,48.0,75,30.04,10.0,Variable,5.8,-,N/A,,Overcast,0,2014-02-01 02:53:00
9:53 PM,54.0,48.0,80,30.04,10.0,Variable,4.6,-,N/A,,Clear,0,2014-02-01 03:53:00
10:53 PM,53.1,48.0,83,30.02,10.0,SE,4.6,-,N/A,,Clear,130,2014-02-01 04:53:00
11:53 PM,52.0,48.0,86,30.01,10.0,Variable,3.5,-,N/A,,Clear,0,2014-02-01 05:53:00